Погода в Бобровке

Россия / Саратовская область     51°05′17″N   45°31′12″E
темп.,
°C
ветер,
м/с
пор.,
м/с
влажн.,
%
обл.,
%
осадки,
мм/ч
давл.,
гПа
погр.,
м
14 июня, пн
пн1401:00+17ююз0076100 0.0 101311
04:00+17всв2284100 0.0 101334
07:00+16в2395100 1.6 1014117
10:00+17вюв2697100 4.0 1014311
13:00+17св3895100 1.6 1015395
16:00+18всв3693100 2.3 1015328
19:00+17ссв349385 0.4 1014223
22:00+16с379620 0.6 1013185
15 июня, вт
вт1501:00+15ссв3698100 0.2 1012144
04:00+16св2599100 0.5 1011205
07:00+16св3699100 2.1 1011256
10:00+16всв3699100 5.4 1010255
13:00+22в347584 1.8 1009929
16:00+18зюз5691100 5.3 1009243
19:00+19зюз4789100 0.3 1008419
22:00+16зюз389674 0.3 1008198
16 июня, ср
ср1601:00+15юз499684 0.0 1008197
04:00+15юз499864 0.0 1008220
07:00+16з589581 0.0 1008268
10:00+21з68775 0.0 1009627
13:00+24з786578 0.1 10091402
16:00+25з676138 0.2 10101651
19:00+23зсз58744 0.4 1010518
22:00+19зсз36913 0.4 1012107
17 июня, чт
чт1701:00+18зсз36925 0.0 101293
04:00+17сз359397 0.0 101384
07:00+18с58915 0.0 1014259
10:00+20ссв688460 0.0 1015593
13:00+22ссв776518 0.0 10171160
16:00+22ссв78520 0.0 10181235
19:00+20ссв59640 0.0 1018644
22:00+16ссв36770 0.0 102097
18 июня, пт
пт1801:00+14св410830 0.0 1021241
04:00+13ссв411820 0.0 1021216
07:00+15ссв410760 0.0 1022365
10:00+19св58620 0.0 1023893
13:00+21св68500 0.0 10241876
16:00+21св78480 0.0 10241922
19:00+20св59610 0.0 1024586
22:00+15всв22750 0.0 102616